Time,TemperatureF,DewpointF,PressureIn,WindDirection,WindDirectionDegrees,WindSpeedMPH,WindSpeedGustMPH,Humidity,HourlyPrecipIn,Conditions,Clouds,dailyrainin,SoftwareType,DateUTC
2013-03-31 00:00:00,42.1,29.6,29.97,NNE,32,0.0,0.0,61,0.00,,CLR,0.00,VWS V14.01,2013-03-31 04:00:00,
2013-03-31 00:01:00,41.9,29.5,29.97,NNE,32,0.0,0.0,61,0.00,,CLR,0.00,VWS V14.01,2013-03-31 04:01:00,
2013-03-31 00:06:00,41.8,30.1,29.97,NNE,32,0.0,0.0,63,0.00,,CLR,0.00,VWS V14.01,2013-03-31 04:06:00,
2013-03-31 00:11:00,41.5,29.9,29.97,NNE,32,0.0,0.0,63,0.00,,CLR,0.00,VWS V14.01,2013-03-31 04:11:00,
2013-03-31 00:15:00,41.5,29.9,29.97,NNE,32,0.0,0.0,63,0.00,,OVC035,0.00,VWS V14.01,2013-03-31 04:15:00,
2013-03-31 00:16:00,41.3,29.7,29.97,NNE,32,0.0,0.0,63,0.00,,CLR,0.00,VWS V14.01,2013-03-31 04:16:00,
2013-03-31 00:21:00,41.2,29.2,29.97,NNE,32,0.0,0.0,62,0.00,,CLR,0.00,VWS V14.01,2013-03-31 04:21:00,
2013-03-31 00:26:00,41.1,29.5,29.97,NNE,32,0.0,0.0,63,0.00,,CLR,0.00,VWS V14.01,2013-03-31 04:26:00,
2013-03-31 00:30:00,41.1,29.5,29.97,NNE,32,0.0,0.0,63,0.00,,OVC035,0.00,VWS V14.01,2013-03-31 04:30:00,
2013-03-31 00:31:00,41.1,29.5,29.97,NNE,32,0.0,0.0,63,0.00,,CLR,0.00,VWS V14.01,2013-03-31 04:31:00,
2013-03-31 00:36:00,40.8,29.2,29.97,NNE,32,0.0,0.0,63,0.00,,CLR,0.00,VWS V14.01,2013-03-31 04:36:00,
2013-03-31 00:41:00,40.8,28.8,29.96,NNE,32,0.0,0.0,62,0.00,,CLR,0.00,VWS V14.01,2013-03-31 04:41:00,
2013-03-31 00:45:00,40.6,28.6,29.96,NNE,32,0.0,0.0,62,0.00,,OVC035,0.00,VWS V14.01,2013-03-31 04:45:00,
2013-03-31 00:46:00,40.6,28.6,29.96,NNE,32,0.0,0.0,62,0.00,,CLR,0.00,VWS V14.01,2013-03-31 04:46:00,
2013-03-31 00:51:00,40.3,28.3,29.96,NNE,32,0.0,0.0,62,0.00,,CLR,0.00,VWS V14.01,2013-03-31 04:51:00,
2013-03-31 00:56:00,40.2,28.6,29.96,NNE,32,0.0,0.0,63,0.00,,CLR,0.00,VWS V14.01,2013-03-31 04:56:00,
2013-03-31 01:00:00,40.2,28.6,29.96,NNE,32,0.0,0.0,63,0.00,,OVC035,0.00,VWS V14.01,2013-03-31 05:00:00,
2013-03-31 01:01:00,40.1,28.5,29.96,NNE,32,0.0,0.0,63,0.00,,CLR,0.00,VWS V14.01,2013-03-31 05:01:00,
2013-03-31 01:06:00,39.9,28.3,29.95,NNE,32,0.0,0.0,63,0.00,,CLR,0.00,VWS V14.01,2013-03-31 05:06:00,
2013-03-31 01:11:00,39.8,28.2,29.95,NNE,32,0.0,0.0,63,0.00,,CLR,0.00,VWS V14.01,2013-03-31 05:11:00,
2013-03-31 01:15:00,39.6,28.4,29.95,NNE,32,0.0,0.0,64,0.00,,OVC035,0.00,VWS V14.01,2013-03-31 05:15:00,
2013-03-31 01:17:00,39.6,28.4,29.95,NNE,32,0.0,0.0,64,0.00,,CLR,0.00,VWS V14.01,2013-03-31 05:17:00,
2013-03-31 01:22:00,39.5,28.4,29.95,NNE,32,0.0,0.0,64,0.00,,CLR,0.00,VWS V14.01,2013-03-31 05:22:00,
2013-03-31 01:27:00,39.3,28.2,29.95,NNE,32,0.0,0.0,64,0.00,,CLR,0.00,VWS V14.01,2013-03-31 05:27:00,
2013-03-31 01:30:00,39.2,28.1,29.94,NNE,32,0.0,0.0,64,0.00,,OVC035,0.00,VWS V14.01,2013-03-31 05:30:00,
2013-03-31 01:32:00,39.2,28.1,29.94,NNE,32,0.0,0.0,64,0.00,,CLR,0.00,VWS V14.01,2013-03-31 05:32:00,
2013-03-31 01:37:00,39.1,28.3,29.94,NNE,32,0.0,0.0,65,0.00,,CLR,0.00,VWS V14.01,2013-03-31 05:37:00,
2013-03-31 01:42:00,39.1,28.3,29.94,NNE,32,0.0,0.0,65,0.00,,CLR,0.00,VWS V14.01,2013-03-31 05:42:00,
2013-03-31 01:45:00,38.9,28.1,29.94,NNE,32,0.0,0.0,65,0.00,,OVC035,0.00,VWS V14.01,2013-03-31 05:45:00,
2013-03-31 01:47:00,38.9,28.5,29.94,NNE,32,0.0,0.0,66,0.00,,CLR,0.00,VWS V14.01,2013-03-31 05:47:00,
2013-03-31 01:52:00,38.9,28.5,29.93,NNE,32,0.0,0.0,66,0.00,,CLR,0.00,VWS V14.01,2013-03-31 05:52:00,
2013-03-31 01:57:00,38.8,28.4,29.93,NNE,32,0.0,0.0,66,0.00,,CLR,0.00,VWS V14.01,2013-03-31 05:57:00,
2013-03-31 02:00:00,38.8,28.8,29.93,NNE,32,0.0,0.0,67,0.00,,OVC035,0.00,VWS V14.01,2013-03-31 06:00:00,
2013-03-31 02:02:00,38.8,28.8,29.93,NNE,32,0.0,0.0,67,0.00,,CLR,0.00,VWS V14.01,2013-03-31 06:02:00,
2013-03-31 02:08:00,38.8,28.8,29.93,NNE,32,0.0,0.0,67,0.00,,CLR,0.00,VWS V14.01,2013-03-31 06:08:00,
2013-03-31 02:13:00,38.8,28.4,29.92,NNE,32,0.0,0.0,66,0.00,,CLR,0.00,VWS V14.01,2013-03-31 06:13:00,
2013-03-31 02:15:00,38.8,28.4,29.92,NNE,32,0.0,0.0,66,0.00,,OVC035,0.00,VWS V14.01,2013-03-31 06:15:00,
2013-03-31 02:17:00,38.9,28.1,29.92,NNE,32,0.0,0.0,65,0.00,,CLR,0.00,VWS V14.01,2013-03-31 06:17:00,
2013-03-31 02:22:00,39.1,28.3,29.92,NNE,32,0.0,0.0,65,0.00,,CLR,0.00,VWS V14.01,2013-03-31 06:22:00,
2013-03-31 02:27:00,39.3,28.5,29.92,NNE,32,0.0,0.0,65,0.00,,CLR,0.00,VWS V14.01,2013-03-31 06:27:00,
2013-03-31 02:30:00,39.3,28.9,29.92,NNE,32,0.0,0.0,66,0.00,,OVC035,0.00,VWS V14.01,2013-03-31 06:30:00,
2013-03-31 02:33:00,39.5,29.1,29.92,NNE,32,0.0,0.0,66,0.00,,CLR,0.00,VWS V14.01,2013-03-31 06:33:00,
2013-03-31 02:38:00,39.5,29.1,29.91,NNE,32,0.0,0.0,66,0.00,,CLR,0.00,VWS V14.01,2013-03-31 06:38:00,
2013-03-31 02:43:00,39.5,29.5,29.91,NNE,32,0.0,0.0,67,0.00,,CLR,0.00,VWS V14.01,2013-03-31 06:43:00,
2013-03-31 02:45:00,39.5,29.5,29.91,NNE,32,0.0,0.0,67,0.00,,OVC035,0.00,VWS V14.01,2013-03-31 06:45:00,
2013-03-31 02:48:00,39.5,29.8,29.91,NNE,32,0.0,0.0,68,0.00,,CLR,0.00,VWS V14.01,2013-03-31 06:48:00,
2013-03-31 02:53:00,39.5,29.5,29.91,NNE,32,0.0,0.0,67,0.00,,CLR,0.00,VWS V14.01,2013-03-31 06:53:00,
2013-03-31 02:58:00,39.5,29.5,29.90,NNE,32,0.0,0.0,67,0.00,,CLR,0.00,VWS V14.01,2013-03-31 06:58:00,
2013-03-31 03:00:00,39.5,29.5,29.90,NNE,32,0.0,0.0,67,0.00,,OVC035,0.00,VWS V14.01,2013-03-31 07:00:00,
2013-03-31 03:03:00,39.5,29.5,29.90,NNE,32,0.0,0.0,67,0.00,,CLR,0.00,VWS V14.01,2013-03-31 07:03:00,
2013-03-31 03:08:00,39.3,29.6,29.90,NNE,32,0.0,0.0,68,0.00,,CLR,0.00,VWS V14.01,2013-03-31 07:08:00,
2013-03-31 03:13:00,39.3,30.0,29.90,NNE,32,0.0,0.0,69,0.00,,CLR,0.00,VWS V14.01,2013-03-31 07:13:00,
2013-03-31 03:15:00,39.3,30.0,29.89,NNE,32,0.0,0.0,69,0.00,,OVC035,0.00,VWS V14.01,2013-03-31 07:15:00,
2013-03-31 03:18:00,39.3,30.4,29.89,NNE,32,0.0,0.0,70,0.00,,CLR,0.00,VWS V14.01,2013-03-31 07:18:00,
2013-03-31 03:23:00,39.5,30.9,29.89,NNE,32,0.0,0.0,71,0.00,,CLR,0.00,VWS V14.01,2013-03-31 07:23:00,
2013-03-31 03:28:00,39.3,30.7,29.89,NNE,32,0.0,0.0,71,0.00,,CLR,0.00,VWS V14.01,2013-03-31 07:28:00,
2013-03-31 03:30:00,39.3,30.7,29.89,NNE,32,0.0,0.0,71,0.00,,OVC035,0.00,VWS V14.01,2013-03-31 07:30:00,
2013-03-31 03:33:00,39.3,30.7,29.89,NNE,32,0.0,0.0,71,0.00,,CLR,0.00,VWS V14.01,2013-03-31 07:33:00,
2013-03-31 03:38:00,39.3,30.7,29.88,NNE,32,0.0,0.0,71,0.00,,CLR,0.00,VWS V14.01,2013-03-31 07:38:00,
2013-03-31 03:43:00,39.3,30.7,29.88,NNE,32,0.0,0.0,71,0.00,,CLR,0.00,VWS V14.01,2013-03-31 07:43:00,
2013-03-31 03:45:00,39.3,30.7,29.88,NNE,32,0.0,0.0,71,0.00,,OVC035,0.00,VWS V14.01,2013-03-31 07:45:00,
2013-03-31 03:48:00,39.3,30.7,29.88,NNE,32,0.0,0.0,71,0.00,,CLR,0.00,VWS V14.01,2013-03-31 07:48:00,
2013-03-31 03:53:00,39.5,31.2,29.88,NNE,32,0.0,0.0,72,0.00,,CLR,0.00,VWS V14.01,2013-03-31 07:53:00,
2013-03-31 03:58:00,39.6,31.0,29.88,NNE,32,0.0,0.0,71,0.00,,CLR,0.00,VWS V14.01,2013-03-31 07:58:00,
2013-03-31 04:00:00,39.8,31.2,29.88,NNE,32,0.0,0.0,71,0.00,,OVC035,0.00,VWS V14.01,2013-03-31 08:00:00,
2013-03-31 04:03:00,39.9,30.6,29.88,NNE,32,0.0,0.0,69,0.00,,CLR,0.00,VWS V14.01,2013-03-31 08:03:00,
2013-03-31 04:08:00,40.1,30.8,29.87,NNE,32,0.0,0.0,69,0.00,,CLR,0.00,VWS V14.01,2013-03-31 08:08:00,
2013-03-31 04:13:00,40.1,31.1,29.87,NNE,32,0.0,0.0,70,0.00,,CLR,0.00,VWS V14.01,2013-03-31 08:13:00,
2013-03-31 04:15:00,40.1,31.5,29.87,NNE,32,0.0,0.0,71,0.00,,OVC035,0.00,VWS V14.01,2013-03-31 08:15:00,
2013-03-31 04:18:00,40.1,31.8,29.87,NNE,32,0.0,0.0,72,0.00,,OVC110,0.00,VWS V14.01,2013-03-31 08:18:00,
2013-03-31 04:23:00,40.1,32.2,29.87,NNE,32,0.0,0.0,73,0.00,,OVC110,0.00,VWS V14.01,2013-03-31 08:23:00,
2013-03-31 04:28:00,39.9,32.0,29.87,NNE,32,0.0,0.0,73,0.00,,OVC110,0.00,VWS V14.01,2013-03-31 08:28:00,
2013-03-31 04:30:00,39.9,31.6,29.86,NNE,32,0.0,0.0,72,0.00,,OVC035,0.00,VWS V14.01,2013-03-31 08:30:00,
2013-03-31 04:33:00,39.9,31.6,29.86,NNE,32,0.0,0.0,72,0.00,,OVC110,0.00,VWS V14.01,2013-03-31 08:33:00,
2013-03-31 04:38:00,39.9,31.3,29.86,NNE,32,0.0,0.0,71,0.00,,OVC110,0.00,VWS V14.01,2013-03-31 08:38:00,
2013-03-31 04:43:00,39.9,30.6,29.86,NNE,32,0.0,0.0,69,0.00,,OVC110,0.00,VWS V14.01,2013-03-31 08:43:00,
2013-03-31 04:45:00,39.9,30.6,29.86,NNE,32,0.0,0.0,69,0.00,,OVC035,0.00,VWS V14.01,2013-03-31 08:45:00,
2013-03-31 04:48:00,40.1,30.8,29.86,NNE,32,0.0,0.0,69,0.00,,OVC110,0.00,VWS V14.01,2013-03-31 08:48:00,
2013-03-31 04:53:00,40.1,30.4,29.86,NNE,32,0.0,0.0,68,0.00,,OVC110,0.00,VWS V14.01,2013-03-31 08:53:00,
2013-03-31 04:58:00,40.1,30.0,29.86,NNE,32,0.0,0.0,67,0.00,,OVC110,0.00,VWS V14.01,2013-03-31 08:58:00,
2013-03-31 05:00:00,40.1,30.4,29.86,NNE,32,0.0,0.0,68,0.00,,OVC035,0.00,VWS V14.01,2013-03-31 09:00:00,
2013-03-31 05:03:00,40.3,30.2,29.86,NNE,32,0.0,0.0,67,0.00,,OVC110,0.00,VWS V14.01,2013-03-31 09:03:00,
2013-03-31 05:08:00,40.5,30.0,29.86,NNE,32,0.0,0.0,66,0.00,,OVC110,0.00,VWS V14.01,2013-03-31 09:08:00,
2013-03-31 05:13:00,40.6,30.1,29.85,NNE,32,0.0,0.0,66,0.00,,OVC110,0.00,VWS V14.01,2013-03-31 09:13:00,
2013-03-31 05:15:00,40.6,30.1,29.85,NNE,32,0.0,0.0,66,0.00,,OVC035,0.00,VWS V14.01,2013-03-31 09:15:00,
2013-03-31 05:18:00,40.8,29.6,29.85,NNE,32,0.0,0.0,64,0.00,,OVC090,0.00,VWS V14.01,2013-03-31 09:18:00,
2013-03-31 05:23:00,40.9,29.3,29.85,NNE,32,0.0,0.0,63,0.00,,OVC090,0.00,VWS V14.01,2013-03-31 09:23:00,
2013-03-31 05:29:00,41.1,29.9,29.85,NNE,32,0.0,0.0,64,0.00,,OVC090,0.00,VWS V14.01,2013-03-31 09:29:00,
2013-03-31 05:30:00,41.2,30.3,29.85,NNE,32,0.0,0.0,65,0.00,,OVC035,0.00,VWS V14.01,2013-03-31 09:30:00,
2013-03-31 05:34:00,41.3,32.3,29.85,NNE,32,0.0,0.0,70,0.00,,OVC090,0.00,VWS V14.01,2013-03-31 09:34:00,
2013-03-31 05:39:00,41.6,32.9,29.85,NNE,32,0.0,0.0,71,0.00,,OVC090,0.00,VWS V14.01,2013-03-31 09:39:00,
2013-03-31 05:44:00,41.6,33.3,29.85,NNE,32,0.0,0.0,72,0.00,,OVC090,0.00,VWS V14.01,2013-03-31 09:44:00,
2013-03-31 05:45:00,41.6,33.3,29.84,NNE,32,0.0,0.0,72,0.00,,OVC035,0.00,VWS V14.01,2013-03-31 09:45:00,
2013-03-31 05:49:00,41.6,32.9,29.84,NNE,32,0.0,0.0,71,0.00,,OVC090,0.00,VWS V14.01,2013-03-31 09:49:00,
2013-03-31 05:54:00,41.6,33.3,29.84,NNE,32,0.0,0.0,72,0.00,,OVC090,0.00,VWS V14.01,2013-03-31 09:54:00,
2013-03-31 05:59:00,41.6,33.3,29.84,NNE,32,0.0,0.0,72,0.00,,OVC090,0.00,VWS V14.01,2013-03-31 09:59:00,
2013-03-31 06:00:00,41.6,33.3,29.84,NNE,32,0.0,0.0,72,0.00,,OVC035,0.00,VWS V14.01,2013-03-31 10:00:00,
2013-03-31 06:04:00,41.6,32.9,29.84,NNE,32,0.0,0.0,71,0.00,,-RA,0.00,VWS V14.01,2013-03-31 10:04:00,
2013-03-31 06:09:00,41.8,33.5,29.84,NNE,32,0.0,0.0,72,0.00,,-RA,0.00,VWS V14.01,2013-03-31 10:09:00,
2013-03-31 06:14:00,41.8,33.8,29.84,NNE,32,0.0,0.0,73,0.00,,-RA,0.00,VWS V14.01,2013-03-31 10:14:00,
2013-03-31 06:15:00,41.8,34.1,29.84,NNE,32,0.0,0.0,74,0.00,,OVC035,0.00,VWS V14.01,2013-03-31 10:15:00,
2013-03-31 06:19:00,41.8,34.5,29.84,NNE,32,0.0,0.0,75,0.00,,-RA,0.00,VWS V14.01,2013-03-31 10:19:00,
2013-03-31 06:24:00,41.9,35.2,29.84,NNE,32,0.0,0.0,77,0.00,,-RA,0.00,VWS V14.01,2013-03-31 10:24:00,
2013-03-31 06:29:00,41.8,35.8,29.84,NNE,32,0.0,0.0,79,0.00,,-RA,0.00,VWS V14.01,2013-03-31 10:29:00,
2013-03-31 06:30:00,41.8,36.1,29.84,NNE,32,0.0,0.0,80,0.00,,OVC035,0.00,VWS V14.01,2013-03-31 10:30:00,
2013-03-31 06:34:00,41.8,36.4,29.84,NNE,32,0.0,0.0,81,0.00,,-RA,0.00,VWS V14.01,2013-03-31 10:34:00,
2013-03-31 06:39:00,41.6,36.5,29.84,NNE,32,0.0,0.0,82,0.00,,-RA,0.00,VWS V14.01,2013-03-31 10:39:00,
2013-03-31 06:44:00,41.5,36.7,29.84,NNE,32,0.0,0.0,83,0.00,,-RA,0.00,VWS V14.01,2013-03-31 10:44:00,
2013-03-31 06:45:00,41.5,36.7,29.84,NNE,32,0.0,0.0,83,0.00,,OVC035,0.00,VWS V14.01,2013-03-31 10:45:00,
2013-03-31 06:49:00,41.3,36.8,29.84,NNE,32,0.0,0.0,84,0.00,,-RA,0.00,VWS V14.01,2013-03-31 10:49:00,
2013-03-31 06:54:00,41.2,36.4,29.84,NNE,32,0.0,0.0,83,0.01,,-RA,0.01,VWS V14.01,2013-03-31 10:54:00,
2013-03-31 06:59:00,41.2,36.7,29.84,NNE,32,0.0,0.0,84,0.01,,-RA,0.01,VWS V14.01,2013-03-31 10:59:00,
2013-03-31 07:00:00,41.2,36.7,29.84,NNE,32,0.0,0.0,84,0.01,,OVC035,0.01,VWS V14.01,2013-03-31 11:00:00,
2013-03-31 07:04:00,41.2,36.7,29.84,NNE,32,0.0,0.0,84,0.01,,-RA,0.01,VWS V14.01,2013-03-31 11:04:00,
2013-03-31 07:09:00,41.3,37.1,29.85,NNE,32,0.0,0.0,85,0.01,,-RA,0.01,VWS V14.01,2013-03-31 11:09:00,
2013-03-31 07:14:00,41.3,37.4,29.85,NNE,32,0.0,0.0,86,0.01,,-RA,0.01,VWS V14.01,2013-03-31 11:14:00,
2013-03-31 07:15:00,41.3,37.4,29.85,NNE,32,0.0,0.0,86,0.01,,OVC035,0.01,VWS V14.01,2013-03-31 11:15:00,
2013-03-31 07:19:00,41.3,37.4,29.85,NNE,32,0.0,0.0,86,0.01,,-RA,0.01,VWS V14.01,2013-03-31 11:19:00,
2013-03-31 07:24:00,41.1,37.5,29.86,NNE,32,0.0,0.0,87,0.01,,-RA,0.01,VWS V14.01,2013-03-31 11:24:00,
2013-03-31 07:29:00,40.9,37.3,29.86,NNE,32,0.0,0.0,87,0.01,,-RA,0.01,VWS V14.01,2013-03-31 11:29:00,
2013-03-31 07:30:00,40.9,37.3,29.86,NNE,32,0.0,0.0,87,0.01,,OVC035,0.01,VWS V14.01,2013-03-31 11:30:00,
2013-03-31 07:34:00,40.8,37.2,29.86,NNE,32,0.0,0.0,87,0.01,,-RA,0.01,VWS V14.01,2013-03-31 11:34:00,
2013-03-31 07:39:00,40.8,37.2,29.86,NNE,32,0.0,0.0,87,0.01,,-RA,0.01,VWS V14.01,2013-03-31 11:39:00,
2013-03-31 07:44:00,40.8,37.2,29.85,NNE,32,0.0,0.0,87,0.02,,-RA,0.02,VWS V14.01,2013-03-31 11:44:00,
2013-03-31 07:45:00,40.8,37.2,29.85,NNE,32,0.0,0.0,87,0.02,,OVC035,0.02,VWS V14.01,2013-03-31 11:45:00,
2013-03-31 07:50:00,40.8,37.2,29.85,NNE,32,0.0,0.0,87,0.02,,-RA,0.02,VWS V14.01,2013-03-31 11:50:00,
2013-03-31 07:55:00,40.8,37.5,29.85,NNE,32,0.0,0.0,88,0.02,,-RA,0.02,VWS V14.01,2013-03-31 11:55:00,
2013-03-31 08:00:00,40.9,37.6,29.85,NNE,32,0.0,0.0,88,0.02,,-RA,0.02,VWS V14.01,2013-03-31 12:00:00,
2013-03-31 08:05:00,40.9,37.6,29.85,NNE,32,0.0,0.0,88,0.01,,-RA,0.02,VWS V14.01,2013-03-31 12:05:00,
2013-03-31 08:10:00,41.1,38.1,29.86,NNE,32,0.0,0.0,89,0.01,,-RA,0.02,VWS V14.01,2013-03-31 12:10:00,
2013-03-31 08:15:00,41.2,38.2,29.86,NNE,32,0.0,0.0,89,0.01,,-RA,0.02,VWS V14.01,2013-03-31 12:15:00,
2013-03-31 08:20:00,41.3,38.3,29.86,NNE,32,0.0,0.0,89,0.01,,-RA,0.02,VWS V14.01,2013-03-31 12:20:00,
2013-03-31 08:25:00,41.5,38.5,29.85,NNE,32,0.0,0.0,89,0.01,,-RA,0.02,VWS V14.01,2013-03-31 12:25:00,
2013-03-31 08:30:00,41.5,38.5,29.85,NNE,32,0.0,0.0,89,0.02,,-RA,0.03,VWS V14.01,2013-03-31 12:30:00,
2013-03-31 08:35:00,41.6,38.9,29.84,NNE,32,0.0,0.0,90,0.02,,-RA,0.03,VWS V14.01,2013-03-31 12:35:00,
2013-03-31 08:40:00,41.9,39.2,29.84,NNE,32,0.0,0.0,90,0.02,,-RA,0.03,VWS V14.01,2013-03-31 12:40:00,
2013-03-31 08:45:00,42.1,39.4,29.84,NNE,32,0.0,0.0,90,0.01,,-RA,0.03,VWS V14.01,2013-03-31 12:45:00,
2013-03-31 08:50:00,42.2,39.5,29.84,NNE,32,0.0,0.0,90,0.01,,-RA,0.03,VWS V14.01,2013-03-31 12:50:00,
2013-03-31 08:55:00,42.3,39.6,29.84,NNE,32,0.0,0.0,90,0.01,,-RA,0.03,VWS V14.01,2013-03-31 12:55:00,
2013-03-31 09:00:00,42.3,39.6,29.84,NNE,32,0.0,0.0,90,0.01,,-RA,0.03,VWS V14.01,2013-03-31 13:00:00,
2013-03-31 09:05:00,42.6,39.9,29.84,NNE,32,0.0,0.0,90,0.01,,-RA,0.03,VWS V14.01,2013-03-31 13:05:00,
2013-03-31 09:10:00,42.8,40.1,29.84,NNE,32,0.0,0.0,90,0.01,,-RA,0.03,VWS V14.01,2013-03-31 13:10:00,
2013-03-31 09:15:00,42.8,40.1,29.84,NNE,32,0.0,0.0,90,0.01,,-RA,0.03,VWS V14.01,2013-03-31 13:15:00,
2013-03-31 09:20:00,43.1,40.4,29.83,NNE,32,0.0,0.0,90,0.01,,-RA,0.03,VWS V14.01,2013-03-31 13:20:00,
2013-03-31 09:25:00,43.3,40.6,29.83,NNE,32,0.0,0.0,90,0.01,,-RA,0.03,VWS V14.01,2013-03-31 13:25:00,
2013-03-31 09:30:00,43.5,40.8,29.83,NNE,32,0.0,0.0,90,0.00,,-RA,0.03,VWS V14.01,2013-03-31 13:30:00,
2013-03-31 09:35:00,43.6,40.9,29.83,NNE,32,0.0,0.0,90,0.00,,-RA,0.03,VWS V14.01,2013-03-31 13:35:00,
2013-03-31 09:40:00,43.8,41.1,29.82,NNE,32,0.0,0.0,90,0.00,,-RA,0.03,VWS V14.01,2013-03-31 13:40:00,
2013-03-31 09:45:00,44.1,41.4,29.83,NNE,32,0.0,0.0,90,0.00,,-RA,0.03,VWS V14.01,2013-03-31 13:45:00,
2013-03-31 09:50:00,44.2,41.5,29.83,NNE,32,0.0,0.0,90,0.00,,,0.03,VWS V14.01,2013-03-31 13:50:00,
2013-03-31 09:55:00,44.5,41.8,29.82,NNE,32,0.0,0.0,90,0.00,,,0.03,VWS V14.01,2013-03-31 13:55:00,
2013-03-31 10:00:00,44.8,42.0,29.82,NNE,32,0.0,0.0,90,0.00,,,0.03,VWS V14.01,2013-03-31 14:00:00,
2013-03-31 10:05:00,44.9,42.2,29.81,NNE,32,0.0,0.0,90,0.00,,,0.03,VWS V14.01,2013-03-31 14:05:00,
2013-03-31 10:10:00,45.4,42.6,29.81,NNE,32,0.0,0.0,90,0.00,,,0.03,VWS V14.01,2013-03-31 14:10:00,
2013-03-31 10:15:00,45.7,42.9,29.81,NNE,32,0.0,0.0,90,0.00,,,0.03,VWS V14.01,2013-03-31 14:15:00,
2013-03-31 10:20:00,45.8,43.0,29.81,NNE,32,0.0,0.0,90,0.00,,,0.03,VWS V14.01,2013-03-31 14:20:00,
2013-03-31 10:25:00,45.8,42.8,29.81,NNE,32,0.0,0.0,89,0.00,,,0.03,VWS V14.01,2013-03-31 14:25:00,
2013-03-31 10:30:00,45.8,42.8,29.81,NNE,32,0.0,0.0,89,0.00,,,0.03,VWS V14.01,2013-03-31 14:30:00,
2013-03-31 10:35:00,46.0,43.0,29.81,NNE,32,0.0,0.0,89,0.00,,-RA,0.03,VWS V14.01,2013-03-31 14:35:00,
2013-03-31 10:41:00,46.2,43.1,29.81,NNE,32,0.0,0.0,89,0.00,,-RA,0.03,VWS V14.01,2013-03-31 14:41:00,
2013-03-31 10:45:00,46.2,43.1,29.81,NNE,32,0.0,0.0,89,0.00,,OVC035,0.03,VWS V14.01,2013-03-31 14:45:00,
2013-03-31 10:46:00,46.2,43.1,29.81,NNE,32,0.0,0.0,89,0.00,,-RA,0.03,VWS V14.01,2013-03-31 14:46:00,
2013-03-31 10:51:00,46.4,43.3,29.81,NNE,32,0.0,0.0,89,0.00,,-RA,0.03,VWS V14.01,2013-03-31 14:51:00,
2013-03-31 10:56:00,46.5,43.4,29.81,NNE,32,0.0,0.0,89,0.00,,-RA,0.03,VWS V14.01,2013-03-31 14:56:00,
2013-03-31 11:00:00,46.5,43.4,29.81,NNE,32,0.0,0.0,89,0.00,,OVC035,0.03,VWS V14.01,2013-03-31 15:00:00,
2013-03-31 11:01:00,46.5,43.4,29.81,NNE,32,0.0,0.0,89,0.00,,-RA,0.03,VWS V14.01,2013-03-31 15:01:00,
2013-03-31 11:06:00,46.5,43.4,29.82,NNE,32,0.0,0.0,89,0.00,,-RA,0.03,VWS V14.01,2013-03-31 15:06:00,
2013-03-31 11:11:00,46.5,43.4,29.82,NNE,32,0.0,0.0,89,0.00,,-RA,0.03,VWS V14.01,2013-03-31 15:11:00,
2013-03-31 11:15:00,46.5,43.4,29.82,NNE,32,0.0,0.0,89,0.00,,OVC035,0.03,VWS V14.01,2013-03-31 15:15:00,
2013-03-31 11:16:00,46.5,43.4,29.82,NNE,30,0.0,0.0,89,0.00,,-RA,0.03,VWS V14.01,2013-03-31 15:16:00,
2013-03-31 11:21:00,46.4,43.3,29.83,NNE,31,0.0,0.0,89,0.00,,OVC035,0.03,VWS V14.01,2013-03-31 15:21:00,
2013-03-31 11:27:00,46.4,43.3,29.82,NNE,31,0.0,0.0,89,0.00,,OVC035,0.03,VWS V14.01,2013-03-31 15:27:00,
2013-03-31 11:30:00,46.4,43.3,29.82,NNE,31,0.0,0.0,89,0.00,,OVC035,0.03,VWS V14.01,2013-03-31 15:30:00,
2013-03-31 11:32:00,46.4,43.3,29.82,NNE,31,0.0,0.0,89,0.00,,OVC035,0.03,VWS V14.01,2013-03-31 15:32:00,
2013-03-31 11:37:00,46.4,43.3,29.82,NNE,31,0.0,0.0,89,0.00,,OVC035,0.03,VWS V14.01,2013-03-31 15:37:00,
2013-03-31 11:42:00,46.4,43.6,29.82,NNE,31,0.0,0.0,90,0.00,,OVC035,0.03,VWS V14.01,2013-03-31 15:42:00,
2013-03-31 11:45:00,46.4,43.6,29.81,NNE,31,0.0,0.0,90,0.00,,OVC100,0.03,VWS V14.01,2013-03-31 15:45:00,
2013-03-31 11:47:00,46.5,43.7,29.81,NNE,31,0.0,0.0,90,0.00,,OVC035,0.03,VWS V14.01,2013-03-31 15:47:00,
2013-03-31 11:52:00,46.7,43.9,29.82,NNE,31,0.0,0.0,90,0.00,,OVC035,0.03,VWS V14.01,2013-03-31 15:52:00,
2013-03-31 11:57:00,47.0,44.2,29.81,SW,233,0.0,5.0,90,0.00,,OVC035,0.03,VWS V14.01,2013-03-31 15:57:00,
2013-03-31 12:00:00,47.0,44.2,29.81,WSW,243,2.0,5.0,90,0.00,,OVC100,0.03,VWS V14.01,2013-03-31 16:00:00,
2013-03-31 12:02:00,46.8,44.0,29.81,SW,222,0.0,5.0,90,0.00,,OVC035,0.03,VWS V14.01,2013-03-31 16:02:00,
2013-03-31 12:07:00,46.8,44.0,29.82,WSW,253,3.0,5.0,90,0.00,,,0.03,VWS V14.01,2013-03-31 16:07:00,
2013-03-31 12:12:00,46.8,44.0,29.83,SW,216,2.0,6.0,90,0.00,,,0.03,VWS V14.01,2013-03-31 16:12:00,
2013-03-31 12:15:00,46.8,44.0,29.83,SW,216,0.0,6.0,90,0.00,,OVC100,0.03,VWS V14.01,2013-03-31 16:15:00,
2013-03-31 12:17:00,47.0,44.2,29.83,SW,216,0.0,3.0,90,0.00,,,0.03,VWS V14.01,2013-03-31 16:17:00,
2013-03-31 12:22:00,47.1,44.3,29.83,SW,216,0.0,3.0,90,0.00,,,0.03,VWS V14.01,2013-03-31 16:22:00,
2013-03-31 12:27:00,47.3,44.5,29.82,West,267,0.0,3.0,90,0.00,,,0.03,VWS V14.01,2013-03-31 16:27:00,
2013-03-31 12:30:00,47.3,44.5,29.82,West,267,0.0,3.0,90,0.00,,OVC100,0.03,VWS V14.01,2013-03-31 16:30:00,
2013-03-31 12:32:00,47.4,44.6,29.82,West,267,0.0,0.0,90,0.00,,,0.03,VWS V14.01,2013-03-31 16:32:00,
2013-03-31 12:37:00,47.7,44.9,29.82,SW,219,2.0,5.0,90,0.00,,,0.03,VWS V14.01,2013-03-31 16:37:00,
2013-03-31 12:43:00,47.9,45.1,29.81,SSW,208,0.0,5.0,90,0.00,,,0.03,VWS V14.01,2013-03-31 16:43:00,
2013-03-31 12:45:00,48.0,45.2,29.81,SSW,208,0.0,5.0,90,0.00,,OVC100,0.03,VWS V14.01,2013-03-31 16:45:00,
2013-03-31 12:48:00,48.0,45.2,29.81,WSW,244,1.0,6.0,90,0.00,,,0.03,VWS V14.01,2013-03-31 16:48:00,
2013-03-31 12:53:00,48.2,45.4,29.81,SW,236,3.0,6.0,90,0.00,,,0.03,VWS V14.01,2013-03-31 16:53:00,
2013-03-31 12:58:00,48.0,44.9,29.82,SW,216,0.0,6.0,89,0.00,,,0.03,VWS V14.01,2013-03-31 16:58:00,
2013-03-31 13:00:00,48.0,44.9,29.81,SW,223,3.0,6.0,89,0.00,,OVC100,0.03,VWS V14.01,2013-03-31 17:00:00,
2013-03-31 13:03:00,48.0,44.9,29.81,SW,217,5.0,7.0,89,0.00,,OVC014,0.03,VWS V14.01,2013-03-31 17:03:00,
2013-03-31 13:08:00,48.0,44.9,29.81,SW,236,0.0,7.0,89,0.00,,OVC014,0.03,VWS V14.01,2013-03-31 17:08:00,
2013-03-31 13:13:00,48.2,45.1,29.81,WNW,298,2.0,5.0,89,0.00,,OVC014,0.03,VWS V14.01,2013-03-31 17:13:00,
2013-03-31 13:15:00,48.2,45.1,29.81,West,265,0.0,5.0,89,0.00,,OVC100,0.03,VWS V14.01,2013-03-31 17:15:00,
2013-03-31 13:18:00,48.2,45.1,29.81,SW,224,0.0,6.0,89,0.00,,OVC014,0.03,VWS V14.01,2013-03-31 17:18:00,
2013-03-31 13:23:00,48.2,44.8,29.81,West,267,1.0,6.0,88,0.00,,OVC014,0.03,VWS V14.01,2013-03-31 17:23:00,
2013-03-31 13:28:00,48.3,44.9,29.81,WSW,250,0.0,6.0,88,0.00,,OVC014,0.03,VWS V14.01,2013-03-31 17:28:00,
2013-03-31 13:30:00,48.3,44.9,29.81,SSW,206,7.0,8.0,88,0.00,,OVC100,0.03,VWS V14.01,2013-03-31 17:30:00,
2013-03-31 13:33:00,48.5,45.1,29.81,WSW,258,3.0,8.0,88,0.00,,OVC014,0.03,VWS V14.01,2013-03-31 17:33:00,
2013-03-31 13:38:00,48.5,45.1,29.81,WSW,250,0.0,8.0,88,0.00,,OVC014,0.03,VWS V14.01,2013-03-31 17:38:00,
2013-03-31 13:43:00,48.3,44.9,29.81,WSW,243,3.0,12.0,88,0.00,,OVC014,0.03,VWS V14.01,2013-03-31 17:43:00,
2013-03-31 13:45:00,48.3,44.9,29.81,SW,223,1.0,12.0,88,0.00,,OVC100,0.03,VWS V14.01,2013-03-31 17:45:00,
2013-03-31 13:48:00,48.3,44.6,29.81,SW,217,7.0,12.0,87,0.00,,,0.03,VWS V14.01,2013-03-31 17:48:00,
2013-03-31 13:53:00,48.3,44.6,29.81,WSW,239,7.0,7.0,87,0.00,,,0.03,VWS V14.01,2013-03-31 17:53:00,
2013-03-31 13:58:00,48.3,44.6,29.81,SSW,208,6.0,8.0,87,0.00,,,0.03,VWS V14.01,2013-03-31 17:58:00,
2013-03-31 14:00:00,48.3,44.6,29.81,WSW,237,3.0,8.0,87,0.00,,OVC100,0.03,VWS V14.01,2013-03-31 18:00:00,
2013-03-31 14:03:00,48.5,44.8,29.81,SSW,212,3.0,11.0,87,0.00,,,0.03,VWS V14.01,2013-03-31 18:03:00,
2013-03-31 14:09:00,48.5,44.8,29.81,WSW,251,4.0,11.0,87,0.00,,,0.03,VWS V14.01,2013-03-31 18:09:00,
2013-03-31 14:14:00,48.5,44.8,29.81,SW,230,3.0,11.0,87,0.00,,,0.03,VWS V14.01,2013-03-31 18:14:00,
2013-03-31 14:15:00,48.5,44.8,29.81,SW,233,6.0,11.0,87,0.00,,OVC100,0.03,VWS V14.01,2013-03-31 18:15:00,
2013-03-31 14:19:00,48.5,44.5,29.81,SSW,212,4.0,8.0,86,0.00,,,0.03,VWS V14.01,2013-03-31 18:19:00,
2013-03-31 14:24:00,48.5,44.5,29.81,WSW,237,2.0,6.0,86,0.00,,,0.03,VWS V14.01,2013-03-31 18:24:00,
2013-03-31 14:29:00,48.6,44.6,29.80,SW,229,0.0,7.0,86,0.00,,,0.03,VWS V14.01,2013-03-31 18:29:00,
2013-03-31 14:30:00,48.8,44.8,29.80,SW,226,5.0,7.0,86,0.00,,OVC100,0.03,VWS V14.01,2013-03-31 18:30:00,
2013-03-31 14:34:00,48.9,44.9,29.80,SW,217,3.0,7.0,86,0.00,,,0.03,VWS V14.01,2013-03-31 18:34:00,
2013-03-31 14:39:00,49.1,45.1,29.79,WSW,237,0.0,10.0,86,0.00,,,0.03,VWS V14.01,2013-03-31 18:39:00,
2013-03-31 14:44:00,49.2,44.9,29.79,SSW,208,5.0,12.0,85,0.00,,,0.03,VWS V14.01,2013-03-31 18:44:00,
2013-03-31 14:45:00,49.2,44.9,29.79,WSW,251,3.0,12.0,85,0.00,,OVC100,0.03,VWS V14.01,2013-03-31 18:45:00,
2013-03-31 14:49:00,49.5,45.2,29.79,SW,226,0.0,12.0,85,0.00,,,0.03,VWS V14.01,2013-03-31 18:49:00,
2013-03-31 14:54:00,49.5,44.9,29.79,West,263,2.0,7.0,84,0.00,,,0.03,VWS V14.01,2013-03-31 18:54:00,
2013-03-31 14:59:00,49.6,45.0,29.78,WSW,254,0.0,10.0,84,0.00,,,0.03,VWS V14.01,2013-03-31 18:59:00,
2013-03-31 15:00:00,49.6,45.0,29.78,WSW,248,7.0,10.0,84,0.00,,OVC100,0.03,VWS V14.01,2013-03-31 19:00:00,
2013-03-31 15:04:00,49.6,45.0,29.78,SSW,209,5.0,10.0,84,0.00,,,0.03,VWS V14.01,2013-03-31 19:04:00,
2013-03-31 15:09:00,49.9,45.3,29.78,SW,216,5.0,12.0,84,0.00,,,0.03,VWS V14.01,2013-03-31 19:09:00,
2013-03-31 15:14:00,49.8,45.2,29.78,WSW,258,3.0,14.0,84,0.00,,,0.03,VWS V14.01,2013-03-31 19:14:00,
2013-03-31 15:15:00,49.8,44.8,29.78,WSW,256,5.0,14.0,83,0.00,,OVC100,0.03,VWS V14.01,2013-03-31 19:15:00,
2013-03-31 15:19:00,49.8,44.8,29.78,WSW,250,3.0,13.0,83,0.00,,,0.03,VWS V14.01,2013-03-31 19:19:00,
2013-03-31 15:24:00,49.8,44.8,29.78,SW,223,8.0,13.0,83,0.00,,,0.03,VWS V14.01,2013-03-31 19:24:00,
2013-03-31 15:29:00,49.8,44.8,29.78,SSW,195,8.0,14.0,83,0.00,,,0.03,VWS V14.01,2013-03-31 19:29:00,
2013-03-31 15:30:00,49.9,45.0,29.78,SW,222,5.0,14.0,83,0.00,,OVC100,0.03,VWS V14.01,2013-03-31 19:30:00,
2013-03-31 15:34:00,49.9,45.0,29.78,SSW,213,6.0,17.0,83,0.00,,,0.03,VWS V14.01,2013-03-31 19:34:00,
2013-03-31 15:39:00,50.1,44.8,29.78,WSW,239,0.0,12.0,82,0.00,,,0.03,VWS V14.01,2013-03-31 19:39:00,
2013-03-31 15:44:00,50.2,44.9,29.78,SW,230,0.0,13.0,82,0.00,,,0.03,VWS V14.01,2013-03-31 19:44:00,
2013-03-31 15:45:00,50.2,44.9,29.78,SW,230,0.0,13.0,82,0.00,,OVC100,0.03,VWS V14.01,2013-03-31 19:45:00,
2013-03-31 15:49:00,50.1,44.5,29.78,WSW,250,8.0,13.0,81,0.00,,OVC016,0.03,VWS V14.01,2013-03-31 19:49:00,
2013-03-31 15:54:00,50.2,44.6,29.78,WSW,241,2.0,12.0,81,0.00,,OVC016,0.03,VWS V14.01,2013-03-31 19:54:00,
2013-03-31 16:00:00,50.2,44.6,29.78,SW,216,3.0,13.0,81,0.00,,OVC016,0.03,VWS V14.01,2013-03-31 20:00:00,
2013-03-31 16:05:00,50.2,44.6,29.78,South,185,5.0,13.0,81,0.00,,OVC016,0.03,VWS V14.01,2013-03-31 20:05:00,
2013-03-31 16:10:00,50.2,44.6,29.78,SSW,208,6.0,11.0,81,0.00,,OVC016,0.03,VWS V14.01,2013-03-31 20:10:00,
2013-03-31 16:15:00,50.1,44.5,29.77,WSW,239,5.0,13.0,81,0.00,,OVC016,0.03,VWS V14.01,2013-03-31 20:15:00,
2013-03-31 16:20:00,50.2,44.6,29.77,SW,222,2.0,12.0,81,0.00,,OVC016,0.03,VWS V14.01,2013-03-31 20:20:00,
2013-03-31 16:25:00,50.4,44.8,29.77,WSW,257,6.0,12.0,81,0.00,,OVC016,0.03,VWS V14.01,2013-03-31 20:25:00,
2013-03-31 16:30:00,50.4,44.8,29.77,SW,230,5.0,12.0,81,0.00,,OVC016,0.03,VWS V14.01,2013-03-31 20:30:00,
2013-03-31 16:35:00,50.5,44.9,29.77,WSW,253,3.0,9.0,81,0.00,,OVC018,0.03,VWS V14.01,2013-03-31 20:35:00,
2013-03-31 16:40:00,50.5,44.6,29.77,WSW,248,6.0,10.0,80,0.00,,OVC018,0.03,VWS V14.01,2013-03-31 20:40:00,
2013-03-31 16:45:00,50.4,44.8,29.77,SW,223,3.0,11.0,81,0.00,,OVC018,0.03,VWS V14.01,2013-03-31 20:45:00,
2013-03-31 16:50:00,50.5,44.6,29.77,SW,220,7.0,11.0,80,0.00,,OVC018,0.03,VWS V14.01,2013-03-31 20:50:00,
2013-03-31 16:55:00,50.8,44.9,29.77,SW,233,6.0,12.0,80,0.00,,OVC018,0.03,VWS V14.01,2013-03-31 20:55:00,
2013-03-31 17:00:00,51.1,45.2,29.77,SW,230,4.0,12.0,80,0.00,,OVC018,0.03,VWS V14.01,2013-03-31 21:00:00,
2013-03-31 17:05:00,51.6,45.3,29.76,SW,229,7.0,12.0,79,0.00,,OVC018,0.03,VWS V14.01,2013-03-31 21:05:00,
2013-03-31 17:10:00,51.7,45.1,29.76,SW,216,3.0,17.0,78,0.00,,OVC018,0.03,VWS V14.01,2013-03-31 21:10:00,
2013-03-31 17:15:00,51.7,45.1,29.76,West,271,2.0,14.0,78,0.00,,OVC018,0.03,VWS V14.01,2013-03-31 21:15:00,
2013-03-31 17:20:00,52.2,45.6,29.77,West,272,0.0,11.0,78,0.00,,OVC018,0.03,VWS V14.01,2013-03-31 21:20:00,
2013-03-31 17:25:00,52.6,45.6,29.76,SW,226,3.0,12.0,77,0.00,,OVC018,0.03,VWS V14.01,2013-03-31 21:25:00,
2013-03-31 17:30:00,52.6,45.3,29.76,SW,229,4.0,13.0,76,0.00,,OVC018,0.03,VWS V14.01,2013-03-31 21:30:00,
2013-03-31 17:35:00,52.6,45.3,29.76,SW,216,0.0,13.0,76,0.00,,OVC018,0.03,VWS V14.01,2013-03-31 21:35:00,
2013-03-31 17:40:00,52.8,45.1,29.76,SW,216,3.0,12.0,75,0.00,,OVC018,0.03,VWS V14.01,2013-03-31 21:40:00,
2013-03-31 17:45:00,53.2,45.1,29.76,SW,219,3.0,16.0,74,0.00,,OVC018,0.03,VWS V14.01,2013-03-31 21:45:00,
2013-03-31 17:50:00,53.2,45.1,29.76,West,274,5.0,16.0,74,0.00,,BKN050,0.03,VWS V14.01,2013-03-31 21:50:00,
2013-03-31 17:55:00,53.3,44.5,29.76,SW,223,6.0,16.0,72,0.00,,BKN050,0.03,VWS V14.01,2013-03-31 21:55:00,
2013-03-31 18:00:00,53.5,45.1,29.76,SSE,151,12.0,12.0,73,0.00,,BKN050,0.03,VWS V14.01,2013-03-31 22:00:00,
2013-03-31 18:05:00,53.6,44.8,29.76,SW,226,2.0,14.0,72,0.00,,BKN050,0.03,VWS V14.01,2013-03-31 22:05:00,
2013-03-31 18:10:00,54.1,44.2,29.76,SSW,202,10.0,15.0,69,0.00,,BKN050,0.03,VWS V14.01,2013-03-31 22:10:00,
2013-03-31 18:15:00,54.5,43.8,29.76,WSW,239,3.0,15.0,67,0.00,,BKN050,0.03,VWS V14.01,2013-03-31 22:15:00,
2013-03-31 18:20:00,54.7,42.0,29.76,WSW,248,9.0,14.0,62,0.00,,BKN040,0.03,VWS V14.01,2013-03-31 22:20:00,
2013-03-31 18:25:00,54.2,41.9,29.77,WSW,241,3.0,12.0,63,0.00,,BKN040,0.03,VWS V14.01,2013-03-31 22:25:00,
2013-03-31 18:30:00,53.6,41.7,29.77,WSW,239,10.0,14.0,64,0.00,,BKN040,0.03,VWS V14.01,2013-03-31 22:30:00,
2013-03-31 18:35:00,53.8,41.9,29.77,WSW,240,0.0,14.0,64,0.00,,BKN040,0.03,VWS V14.01,2013-03-31 22:35:00,
2013-03-31 18:40:00,53.9,42.0,29.77,WNW,282,4.0,10.0,64,0.00,,BKN040,0.03,VWS V14.01,2013-03-31 22:40:00,
2013-03-31 18:45:00,54.1,41.4,29.77,WSW,244,7.0,8.0,62,0.00,,BKN040,0.03,VWS V14.01,2013-03-31 22:45:00,
2013-03-31 18:51:00,53.9,41.2,29.77,SW,232,7.0,13.0,62,0.00,,BKN040,0.03,VWS V14.01,2013-03-31 22:51:00,
2013-03-31 18:56:00,53.6,40.9,29.77,SSW,196,0.0,17.0,62,0.00,,BKN040,0.03,VWS V14.01,2013-03-31 22:56:00,
2013-03-31 19:00:00,53.5,41.2,29.78,SW,219,5.0,17.0,63,0.00,,OVC100,0.03,VWS V14.01,2013-03-31 23:00:00,
2013-03-31 19:01:00,53.5,41.2,29.78,SW,222,2.0,17.0,63,0.00,,BKN040,0.03,VWS V14.01,2013-03-31 23:01:00,
2013-03-31 19:06:00,53.3,41.5,29.78,WSW,243,2.0,10.0,64,0.00,,BKN040,0.03,VWS V14.01,2013-03-31 23:06:00,
2013-03-31 19:11:00,53.2,41.3,29.78,SW,230,7.0,10.0,64,0.00,,BKN040,0.03,VWS V14.01,2013-03-31 23:11:00,
2013-03-31 19:15:00,53.1,41.3,29.78,South,189,1.0,10.0,64,0.00,,OVC100,0.03,VWS V14.01,2013-03-31 23:15:00,
2013-03-31 19:16:00,53.1,41.3,29.78,West,265,1.0,10.0,64,0.00,,BKN040,0.03,VWS V14.01,2013-03-31 23:16:00,
2013-03-31 19:21:00,52.9,41.1,29.78,WSW,258,0.0,8.0,64,0.00,,FEW036,0.03,VWS V14.01,2013-03-31 23:21:00,
2013-03-31 19:26:00,52.6,40.8,29.78,WSW,258,11.0,11.0,64,0.00,,FEW036,0.03,VWS V14.01,2013-03-31 23:26:00,
2013-03-31 19:30:00,52.5,40.7,29.78,WSW,244,0.0,11.0,64,0.00,,OVC100,0.03,VWS V14.01,2013-03-31 23:30:00,
2013-03-31 19:31:00,52.3,40.9,29.78,South,188,2.0,11.0,65,0.00,,FEW036,0.03,VWS V14.01,2013-03-31 23:31:00,
2013-03-31 19:36:00,52.2,40.8,29.79,West,274,6.0,6.0,65,0.00,,FEW036,0.03,VWS V14.01,2013-03-31 23:36:00,
2013-03-31 19:41:00,51.9,40.5,29.79,SSW,209,1.0,7.0,65,0.00,,FEW036,0.03,VWS V14.01,2013-03-31 23:41:00,
2013-03-31 19:45:00,51.7,40.3,29.79,WSW,240,1.0,7.0,65,0.00,,OVC100,0.03,VWS V14.01,2013-03-31 23:45:00,
2013-03-31 19:46:00,51.7,40.3,29.79,WSW,240,0.0,7.0,65,0.00,,FEW036,0.03,VWS V14.01,2013-03-31 23:46:00,
2013-03-31 19:51:00,51.3,40.3,29.79,SW,215,3.0,6.0,66,0.00,,FEW036,0.03,VWS V14.01,2013-03-31 23:51:00,
2013-03-31 19:57:00,51.1,40.2,29.79,SW,226,0.0,6.0,66,0.00,,FEW036,0.03,VWS V14.01,2013-03-31 23:57:00,
2013-03-31 20:00:00,51.1,40.2,29.79,SSW,199,3.0,6.0,66,0.00,,OVC100,0.03,VWS V14.01,2013-04-01 00:00:00,
2013-03-31 20:02:00,51.0,40.1,29.79,SW,230,2.0,7.0,66,0.00,,FEW036,0.03,VWS V14.01,2013-04-01 00:02:00,
2013-03-31 20:07:00,50.8,40.2,29.79,SW,222,1.0,7.0,67,0.00,,CLR,0.03,VWS V14.01,2013-04-01 00:07:00,
2013-03-31 20:12:00,50.7,40.2,29.79,SSW,212,2.0,5.0,67,0.00,,CLR,0.03,VWS V14.01,2013-04-01 00:12:00,
2013-03-31 20:15:00,50.5,40.3,29.79,SW,217,2.0,6.0,68,0.00,,OVC100,0.03,VWS V14.01,2013-04-01 00:15:00,
2013-03-31 20:17:00,50.5,40.3,29.79,SW,219,4.0,7.0,68,0.00,,CLR,0.03,VWS V14.01,2013-04-01 00:17:00,
2013-03-31 20:22:00,50.4,40.2,29.79,WSW,248,0.0,7.0,68,0.00,,CLR,0.03,VWS V14.01,2013-04-01 00:22:00,
2013-03-31 20:27:00,50.2,40.4,29.79,SW,223,3.0,11.0,69,0.00,,CLR,0.03,VWS V14.01,2013-04-01 00:27:00,
2013-03-31 20:30:00,50.2,40.4,29.79,WSW,243,1.0,11.0,69,0.00,,OVC100,0.03,VWS V14.01,2013-04-01 00:30:00,
2013-03-31 20:32:00,50.1,40.3,29.79,SSW,210,0.0,11.0,69,0.00,,CLR,0.03,VWS V14.01,2013-04-01 00:32:00,
2013-03-31 20:37:00,49.9,40.2,29.79,SW,222,0.0,6.0,69,0.00,,CLR,0.03,VWS V14.01,2013-04-01 00:37:00,
2013-03-31 20:42:00,49.9,40.2,29.79,SW,230,2.0,6.0,69,0.00,,CLR,0.03,VWS V14.01,2013-04-01 00:42:00,
2013-03-31 20:45:00,49.9,40.5,29.79,SW,222,3.0,10.0,70,0.00,,OVC100,0.03,VWS V14.01,2013-04-01 00:45:00,
2013-03-31 20:47:00,49.9,40.2,29.79,SSW,203,1.0,10.0,69,0.00,,CLR,0.03,VWS V14.01,2013-04-01 00:47:00,
2013-03-31 20:52:00,49.8,40.4,29.79,West,271,2.0,7.0,70,0.00,,CLR,0.03,VWS V14.01,2013-04-01 00:52:00,
2013-03-31 20:57:00,49.8,40.4,29.79,SW,219,0.0,10.0,70,0.00,,CLR,0.03,VWS V14.01,2013-04-01 00:57:00,
2013-03-31 21:00:00,49.8,40.0,29.79,SW,223,3.0,11.0,69,0.00,,OVC100,0.03,VWS V14.01,2013-04-01 01:00:00,
2013-03-31 21:02:00,49.9,40.2,29.79,South,188,2.0,11.0,69,0.00,,CLR,0.03,VWS V14.01,2013-04-01 01:02:00,
2013-03-31 21:07:00,50.1,40.3,29.78,South,191,3.0,11.0,69,0.00,,CLR,0.03,VWS V14.01,2013-04-01 01:07:00,
2013-03-31 21:12:00,50.1,40.3,29.78,SW,226,1.0,8.0,69,0.00,,CLR,0.03,VWS V14.01,2013-04-01 01:12:00,
2013-03-31 21:15:00,49.9,40.2,29.79,SSW,212,6.0,7.0,69,0.00,,OVC100,0.03,VWS V14.01,2013-04-01 01:15:00,
2013-03-31 21:17:00,49.9,40.2,29.79,SSW,206,4.0,8.0,69,0.00,,CLR,0.03,VWS V14.01,2013-04-01 01:17:00,
2013-03-31 21:23:00,49.9,40.2,29.79,WSW,239,0.0,16.0,69,0.00,,CLR,0.03,VWS V14.01,2013-04-01 01:23:00,
2013-03-31 21:28:00,49.9,39.8,29.78,SSW,208,1.0,16.0,68,0.00,,CLR,0.03,VWS V14.01,2013-04-01 01:28:00,
2013-03-31 21:30:00,49.9,39.8,29.78,SSW,193,1.0,11.0,68,0.00,,OVC100,0.03,VWS V14.01,2013-04-01 01:30:00,
2013-03-31 21:33:00,49.8,39.7,29.78,South,184,3.0,7.0,68,0.00,,CLR,0.03,VWS V14.01,2013-04-01 01:33:00,
2013-03-31 21:38:00,49.6,39.5,29.78,SSW,208,0.0,6.0,68,0.00,,CLR,0.03,VWS V14.01,2013-04-01 01:38:00,
2013-03-31 21:43:00,49.5,39.4,29.79,SSW,200,2.0,7.0,68,0.00,,CLR,0.03,VWS V14.01,2013-04-01 01:43:00,
2013-03-31 21:45:00,49.5,39.4,29.78,SW,224,0.0,7.0,68,0.00,,OVC100,0.03,VWS V14.01,2013-04-01 01:45:00,
2013-03-31 21:48:00,49.4,39.3,29.78,SSW,212,3.0,7.0,68,0.00,,CLR,0.03,VWS V14.01,2013-04-01 01:48:00,
2013-03-31 21:53:00,49.2,39.5,29.78,SSW,212,0.0,7.0,69,0.00,,CLR,0.03,VWS V14.01,2013-04-01 01:53:00,
2013-03-31 21:58:00,48.9,39.2,29.78,SSW,210,0.0,6.0,69,0.00,,CLR,0.03,VWS V14.01,2013-04-01 01:58:00,
2013-03-31 22:00:00,48.9,39.2,29.78,SSW,206,0.0,6.0,69,0.00,,OVC100,0.03,VWS V14.01,2013-04-01 02:00:00,
2013-03-31 22:03:00,48.9,39.2,29.78,SW,226,0.0,6.0,69,0.00,,CLR,0.03,VWS V14.01,2013-04-01 02:03:00,
2013-03-31 22:08:00,48.8,39.1,29.78,South,191,5.0,6.0,69,0.00,,CLR,0.03,VWS V14.01,2013-04-01 02:08:00,
2013-03-31 22:13:00,48.9,39.2,29.78,SSW,209,1.0,7.0,69,0.00,,CLR,0.03,VWS V14.01,2013-04-01 02:13:00,
2013-03-31 22:15:00,48.9,39.2,29.78,SSW,213,1.0,7.0,69,0.00,,OVC100,0.03,VWS V14.01,2013-04-01 02:15:00,
2013-03-31 22:18:00,48.9,39.2,29.78,SSW,203,2.0,6.0,69,0.00,,CLR,0.03,VWS V14.01,2013-04-01 02:18:00,
2013-03-31 22:23:00,48.6,38.9,29.78,SSW,208,5.0,5.0,69,0.00,,CLR,0.03,VWS V14.01,2013-04-01 02:23:00,
2013-03-31 22:28:00,48.8,39.1,29.78,SW,215,2.0,5.0,69,0.00,,CLR,0.03,VWS V14.01,2013-04-01 02:28:00,
2013-03-31 22:30:00,48.6,38.9,29.78,SSW,203,3.0,6.0,69,0.00,,OVC100,0.03,VWS V14.01,2013-04-01 02:30:00,
2013-03-31 22:33:00,48.6,38.9,29.78,SSW,206,6.0,10.0,69,0.00,,CLR,0.03,VWS V14.01,2013-04-01 02:33:00,
2013-03-31 22:38:00,48.6,38.9,29.78,SSW,202,2.0,7.0,69,0.00,,CLR,0.03,VWS V14.01,2013-04-01 02:38:00,
2013-03-31 22:43:00,48.6,38.9,29.78,South,186,3.0,8.0,69,0.00,,CLR,0.03,VWS V14.01,2013-04-01 02:43:00,
2013-03-31 22:45:00,48.6,38.9,29.78,SW,222,2.0,10.0,69,0.00,,OVC100,0.03,VWS V14.01,2013-04-01 02:45:00,
2013-03-31 22:48:00,48.6,38.9,29.78,SSW,209,0.0,10.0,69,0.00,,CLR,0.03,VWS V14.01,2013-04-01 02:48:00,
2013-03-31 22:53:00,48.5,39.2,29.78,SSW,212,2.0,7.0,70,0.00,,CLR,0.03,VWS V14.01,2013-04-01 02:53:00,
2013-03-31 22:58:00,48.5,39.2,29.79,SW,236,5.0,8.0,70,0.00,,CLR,0.03,VWS V14.01,2013-04-01 02:58:00,
2013-03-31 23:00:00,48.5,39.2,29.79,SSW,213,4.0,8.0,70,0.00,,OVC100,0.03,VWS V14.01,2013-04-01 03:00:00,
2013-03-31 23:03:00,48.5,39.2,29.79,SSW,213,4.0,9.0,70,0.00,,CLR,0.03,VWS V14.01,2013-04-01 03:03:00,
2013-03-31 23:08:00,48.5,39.2,29.78,SSW,200,3.0,9.0,70,0.00,,CLR,0.03,VWS V14.01,2013-04-01 03:08:00,
2013-03-31 23:13:00,48.5,39.2,29.78,SW,223,1.0,10.0,70,0.00,,CLR,0.03,VWS V14.01,2013-04-01 03:13:00,
2013-03-31 23:15:00,48.6,39.3,29.78,SW,223,5.0,10.0,70,0.00,,OVC100,0.03,VWS V14.01,2013-04-01 03:15:00,
2013-03-31 23:18:00,48.6,39.3,29.78,SSW,205,1.0,8.0,70,0.00,,CLR,0.03,VWS V14.01,2013-04-01 03:18:00,
2013-03-31 23:24:00,48.6,39.3,29.78,SSW,210,3.0,11.0,70,0.00,,CLR,0.03,VWS V14.01,2013-04-01 03:24:00,
2013-03-31 23:29:00,48.6,39.3,29.78,SSW,213,2.0,10.0,70,0.00,,CLR,0.03,VWS V14.01,2013-04-01 03:29:00,
2013-03-31 23:30:00,48.6,38.9,29.77,SSW,202,4.0,10.0,69,0.00,,OVC100,0.03,VWS V14.01,2013-04-01 03:30:00,
2013-03-31 23:33:00,48.8,39.1,29.77,SSW,208,7.0,10.0,69,0.00,,CLR,0.03,VWS V14.01,2013-04-01 03:33:00,
2013-03-31 23:38:00,48.8,39.1,29.77,SSW,208,4.0,13.0,69,0.00,,CLR,0.03,VWS V14.01,2013-04-01 03:38:00,
2013-03-31 23:44:00,48.9,39.2,29.77,SW,230,7.0,17.0,69,0.00,,CLR,0.03,VWS V14.01,2013-04-01 03:44:00,
2013-03-31 23:45:00,48.9,39.2,29.77,SW,233,6.0,17.0,69,0.00,,OVC100,0.03,VWS V14.01,2013-04-01 03:45:00,
2013-03-31 23:49:00,48.9,39.2,29.77,SSW,208,13.0,13.0,69,0.00,,CLR,0.03,VWS V14.01,2013-04-01 03:49:00,
2013-03-31 23:54:00,49.2,39.1,29.77,SW,219,1.0,13.0,68,0.00,,CLR,0.03,VWS V14.01,2013-04-01 03:54:00,
2013-03-31 23:59:00,49.4,39.3,29.77,SW,215,5.0,11.0,68,0.00,,CLR,0.03,VWS V14.01,2013-04-01 03:59:00,